Location: Gungolding
(48.9246°N, 11.3502°E)
Time: 08:18:35
(UTC+02:00)

Altair - Visible Passes

Search period start: 29 March 2020 00:00
Search period end: 08 April 2020 01:00
Orbit: 1502 x 1682 km, 47.2° (Epoch: 28 March)

Date Brightness Start Highest point End Pass type
(mag) Time Alt. Az. Time Alt. Az. Time Alt. Az.
29 Mar 7.6 21:06:44 10° W 21:15:45 64° SSW 21:22:16 21° SE visible
29 Mar 8.4 23:11:44 10° W 23:19:14 29° SW 23:20:17 29° SSW visible
30 Mar 7.6 20:41:35 10° W 20:50:38 67° SSW 20:58:32 15° ESE visible
30 Mar 8.3 22:46:29 10° W 22:54:12 32° SW 22:56:33 28° SSW visible
31 Mar 7.6 20:16:25 10° W 20:25:31 69° SSW 20:34:41 10° ESE visible
31 Mar 8.3 22:21:16 10° W 22:29:10 34° SW 22:32:50 26° S visible
01 Apr 8.3 21:56:03 10° WNW 22:04:07 36° SW 22:09:11 21° S visible
02 Apr 8.3 21:30:51 10° WNW 21:39:04 39° SW 21:45:33 17° SSE visible
02 Apr 9.3 23:39:36 10° WSW 23:41:36 11° WSW 23:43:36 10° SW visible
03 Apr 8.2 21:05:39 10° WNW 21:14:00 41° SW 21:21:59 12° SSE visible
03 Apr 9.3 23:13:19 10° WSW 23:16:38 12° SW 23:19:59 10° SW visible
04 Apr 8.2 20:40:28 10° WNW 20:48:57 44° SW 20:57:28 10° SSE visible
04 Apr 9.3 22:47:28 10° W 22:51:40 14° SW 22:55:54 10° SSW visible
05 Apr 8.2 20:15:17 10° WNW 20:23:52 46° SSW 20:32:30 10° SE visible
05 Apr 9.3 22:21:48 10° W 22:26:41 16° SW 22:31:37 10° SSW visible
06 Apr 9.3 21:56:16 10° W 22:01:42 17° SW 22:07:11 10° SSW visible
07 Apr 9.2 21:30:49 10° W 21:36:42 19° SW 21:42:39 10° S visible
